Dewpoint
27 24 24 24 22 22 23 22 22 22 23 25 25 23 24 24 25 27 27 29 36 37 31 35 39 45 47 49 49 49 47 47 46 45 45 45 44 44 44 45 45 46 46 47 49 50 51 51 51 50 49 49 50 49 49 49 49 49 49 50 48 50 51 51 51 52 50 49 50 49 49 50 51 53 56 54 55 56 58 60 59 59 61 60 61 62
25 22 24 26 26 25 21 22 20 20 21 21 20 19 20 24 19 21 23 24 30 32 26 36 42 45 47 48 49 47 46 45 45 45 45 44 44 44 44 45 45 46 47 48 48 50 51 51 50 50 49 54 48 50 49 48 48 49 50 49 49 49 50 50 50 52 50 50 51 50 50 50 51 52 53 53 54 56 57 58 58 58 58 59 60 61
22 21 22 23 27 22 22 22 22 21 21 21 19 20 19 21 23 24 21 23 30 28 30 40 41 38 44 47 47 46 45 45 45 45 45 44 43 43 44 45 45 45 46 47 48 49 50 50 50 49 48 48 48 48 48 49 49 48 48 48 50 49 50 49 51 53 50 50 52 50 50 51 51 53 54 55 56 56 56 57 57 58 57 58 59 60
21 20 22 23 23 21 21 22 20 20 22 21 22 20 17 24 27 24 25 27 34 29 32 36 36 36 39 42 45 45 45 43 43 43 44 44 43 43 44 45 45 45 46 47 47 49 50 50 49 48 47 48 47 49 48 48 48 49 53 48 48 49 49 49 51 53 52 53 53 52 51 52 51 51 55 53 54 54 55 56 56 56 56 56 58 60
21 23 25 24 22 20 20 22 21 20 19 23 20 21 21 19 20 19 18 23 30 34 35 34 34 34 36 39 41 43 44 43 44 43 42 43 44 45 45 45 46 45 46 46 47 48 49 48 47 47 49 49 47 47 48 48 48 49 48 48 49 48 49 49 52 50 52 53 50 50 50 52 51 51 51 51 51 52 55 55 55 54 55 56 58 60
23 23 24 24 22 21 20 21 23 23 19 23 26 18 17 17 17 15 19 18 23 30 30 32 25 27 34 39 40 42 42 42 44 42 42 43 43 44 44 44 46 46 46 47 47 48 48 47 47 47 48 48 47 47 47 49 49 49 48 49 49 49 49 49 50 50 53 50 49 49 49 49 48 48 49 50 50 51 52 54 55 54 55 55 57 59
22 23 23 22 22 22 22 22 22 23 22 23 20 20 18 17 17 17 18 15 17 21 28 26 25 22 29 37 39 41 42 41 43 42 43 44 45 46 46 45 45 45 46 47 47 47 48 47 47 47 47 48 47 47 48 48 49 49 49 49 49 49 50 51 50 50 54 50 49 48 48 49 49 48 48 50 51 52 54 54 53 53 55 55 56 58
29 21 21 22 21 21 22 21 24 24 21 18 20 20 18 17 19 18 21 18 19 26 26 28 27 23 26 31 35 41 41 41 41 42 43 46 47 47 45 44 45 46 46 46 46 47 47 47 46 46 47 47 46 48 48 48 48 48 49 49 49 50 52 52 50 51 50 51 50 48 49 52 50 49 50 51 52 54 55 53 53 53 55 56 57 58
23 21 21 21 23 21 21 22 23 22 19 20 21 20 19 19 19 18 17 18 22 19 16 24 29 25 26 29 38 41 39 39 40 42 44 46 47 46 46 45 45 46 47 47 46 46 46 46 46 47 46 47 47 48 48 48 48 48 48 50 50 49 49 49 49 53 49 51 51 49 48 48 50 52 53 53 53 52 52 51 52 53 54 56 57 57
25 23 25 23 22 21 21 23 24 25 21 20 22 26 26 26 27 19 20 20 22 17 15 22 27 18 21 25 37 38 38 39 40 43 45 47 45 45 46 46 46 48 48 48 47 47 46 46 46 47 46 46 46 47 49 49 48 48 48 49 51 49 48 49 50 49 48 48 51 48 48 48 49 50 50 50 50 50 51 50 51 52 53 54 56 57
29 42 34 24 24 22 23 24 23 25 23 23 24 21 27 25 26 30 27 26 22 12 17 22 28 22 17 24 37 38 37 39 42 43 46 45 45 44 46 46 46 47 48 48 47 46 46 46 46 46 46 46 46 47 47 47 47 47 47 48 48 48 47 48 48 48 48 48 48 49 48 48 48 49 49 49 49 50 50 50 51 52 53 55 55 57
26 29 26 26 33 26 24 23 25 24 24 25 24 22 22 22 22 21 22 23 15 16 21 24 28 26 16 22 30 38 39 42 42 42 43 44 44 44 45 46 46 47 48 48 47 46 46 46 45 46 46 46 46 46 46 46 47 48 47 46 46 47 47 47 49 48 48 48 48 48 48 49 49 49 50 49 49 49 49 50 51 52 53 54 55 57
25 26 26 26 39 23 25 23 23 22 22 22 25 24 19 15 16 10 18 12 12 16 19 24 26 19 24 25 30 34 40 40 42 42 42 43 43 44 44 45 46 48 48 48 47 45 45 45 44 45 45 45 45 46 45 45 46 46 45 46 45 46 47 47 47 47 48 48 48 48 48 48 51 52 50 50 50 49 50 50 51 52 53 53 54 55
24 27 26 25 27 30 23 22 22 20 21 21 21 22 18 11 8 7 12 14 16 19 22 21 26 20 25 30 34 36 37 40 40 41 42 43 43 44 44 45 47 47 48 48 46 45 45 44 44 44 45 45 45 45 45 45 47 45 46 45 45 46 46 47 48 48 47 47 48 48 48 49 49 49 52 51 50 50 51 51 51 52 53 54 55 55
18 21 25 24 23 24 24 24 24 22 22 22 22 22 20 19 11 7 12 8 10 14 19 24 17 16 26 29 34 38 40 42 44 42 42 43 43 43 44 45 46 47 47 48 45 44 44 44 44 44 45 45 45 45 45 44 45 45 45 45 47 46 46 46 47 47 47 47 48 48 49 49 49 51 53 52 54 53 52 51 51 52 53 54 54 55
23 22 25 27 25 25 25 24 31 29 26 27 24 26 23 21 24 15 19 18 18 15 14 19 22 23 28 31 37 40 41 42 44 44 45 44 45 44 45 46 47 47 48 48 46 44 44 44 44 44 44 44 45 45 45 44 45 44 45 45 46 46 46 46 49 49 48 47 47 48 48 48 52 53 53 53 53 52 52 52 52 52 53 54 55 55
25 23 26 29 30 31 31 31 32 27 21 26 25 22 24 27 24 16 18 22 19 16 9 15 26 29 31 34 36 38 39 39 41 42 43 43 44 44 44 46 46 47 48 48 47 44 44 44 44 44 44 44 45 45 44 44 45 45 45 46 46 46 46 46 49 48 47 47 47 48 48 48 49 50 51 52 52 52 52 53 53 53 53 54 55 55
22 22 28 28 29 30 35 30 35 34 31 28 23 26 28 28 26 19 11 12 9 7 9 23 24 25 24 22 34 37 37 37 39 40 42 41 42 43 44 44 46 47 47 48 48 46 44 44 44 44 44 43 43 44 44 45 44 45 45 46 46 46 46 46 46 47 47 47 47 47 48 49 50 51 52 53 53 53 53 53 53 53 53 54 54 56
28 20 26 27 28 29 34 33 32 33 37 27 27 33 24 16 17 24 15 10 7 6 7 19 22 24 24 25 31 34 36 36 37 39 40 42 42 43 44 44 45 45 45 46 47 47 45 44 44 44 43 43 43 46 45 44 44 44 45 46 46 45 46 46 46 47 47 48 48 48 49 49 50 51 52 53 53 53 53 54 54 53 53 53 55 56
30 19 23 28 29 30 34 32 23 29 34 35 33 30 33 25 22 20 16 21 17 7 8 15 21 19 26 27 32 33 35 36 37 38 40 41 42 43 44 44 45 45 46 46 46 46 46 44 44 43 43 42 42 43 45 44 44 44 45 46 47 47 46 46 46 46 47 47 47 48 49 49 50 51 51 52 53 53 53 54 54 54 54 55 55 54
24 25 16 25 29 32 26 30 28 30 29 30 27 27 29 27 28 25 25 23 20 10 8 9 10 18 24 28 34 33 35 36 38 38 39 41 42 43 44 44 44 45 46 46 46 46 45 44 44 44 43 42 42 45 45 44 44 44 44 45 46 46 46 45 45 46 46 47 47 48 48 48 49 50 51 52 52 53 53 54 55 55 55 56 55 55
23 24 20 25 28 26 28 33 34 35 33 29 27 26 27 24 22 19 15 24 24 20 15 11 13 21 25 36 35 34 35 37 37 39 39 40 41 42 43 44 44 44 45 45 45 44 44 44 43 43 43 43 43 44 44 44 44 43 44 44 45 44 45 45 45 45 46 46 47 47 48 48 49 50 51 51 52 54 54 55 55 56 56 54 54 55
28 26 25 19 25 27 32 34 39 39 36 33 32 28 29 26 24 17 15 21 24 24 23 20 15 18 29 35 37 38 36 34 33 37 38 39 40 41 42 43 43 44 44 44 44 44 44 43 43 42 42 42 42 43 43 43 43 43 43 43 43 43 43 44 45 46 46 46 47 47 47 48 49 50 51 51 52 54 55 55 56 56 54 54 54 54
50 25 22 25 26 28 31 34 38 38 35 31 32 32 29 26 27 22 22 25 21 23 20 17 14 20 28 36 37 37 37 38 37 35 35 37 38 40 41 42 42 42 42 43 44 44 43 43 42 41 42 42 42 42 42 42 42 42 42 42 42 43 43 43 44 46 46 46 46 46 46 47 49 50 51 51 54 54 54 54 56 56 54 54 53 53
23 23 23 17 15 19 23 27 30 33 34 30 30 31 32 30 29 27 27 25 19 22 23 17 13 16 29 37 34 35 36 34 34 34 37 36 37 40 41 40 41 42 42 42 43 43 42 41 41 40 40 41 41 42 42 42 42 41 42 42 42 43 43 43 45 46 46 46 46 46 46 47 48 50 51 51 52 53 53 54 54 54 54 53 52 52
26 25 23 18 15 11 11 13 17 21 27 30 32 32 33 28 25 24 23 21 21 23 23 17 16 22 26 29 29 30 33 32 33 34 37 38 37 39 40 40 40 41 41 41 42 42 41 41 41 40 40 41 41 41 41 41 41 41 42 42 43 43 43 43 44 46 46 46 46 46 45 46 48 50 51 51 53 53 53 54 53 53 53 53 51 51
27 29 25 22 16 17 22 25 29 33 30 26 28 31 31 29 28 25 23 21 24 20 20 22 24 26 26 27 28 29 32 31 31 33 34 35 35 37 38 39 40 40 41 41 42 42 41 40 40 40 40 41 41 41 41 41 41 41 42 42 43 43 44 44 45 46 45 45 45 45 46 46 47 49 51 51 52 52 53 53 53 53 52 53 51 51
30 27 30 28 27 29 30 30 32 35 30 28 28 28 30 29 27 24 24 24 25 22 23 26 26 24 26 28 29 31 31 31 33 34 35 35 36 36 37 39 45 41 40 40 40 41 40 40 40 40 40 40 40 41 41 41 41 41 41 41 42 42 44 45 46 45 45 45 45 44 45 46 46 48 49 52 51 52 53 53 52 52 52 53 52 52
29 22 28 30 30 31 32 32 34 35 34 31 30 28 28 27 26 23 23 27 24 22 27 26 26 26 28 30 31 31 31 31 33 34 35 35 36 36 37 38 39 40 40 39 40 41 40 40 40 40 40 40 40 40 41 41 41 42 42 42 43 43 44 46 45 44 44 44 44 44 45 46 47 48 49 50 51 52 52 52 51 51 51 52 53 53
30 26 29 32 31 32 32 32 34 35 33 33 33 33 31 28 27 26 26 26 27 25 27 27 27 28 30 30 31 32 34 35 35 36 37 37 36 37 38 38 38 38 39 39 39 40 40 40 40 40 39 39 39 40 40 41 41 41 41 41 41 42 43 45 44 44 44 44 44 44 45 46 47 48 48 50 51 51 51 51 51 52 52 53 53 52
29 22 37 31 29 29 30 33 33 34 34 32 33 32 30 30 27 25 23 25 30 26 28 28 28 29 32 33 33 35 35 35 37 37 37 37 37 37 37 37 37 38 38 39 39 39 40 40 40 39 40 39 39 40 40 40 40 41 41 41 41 42 44 45 44 44 43 44 44 44 45 46 46 47 48 50 51 52 51 51 51 51 53 53 53 52
32 26 31 28 26 26 28 31 32 30 31 32 28 28 21 26 25 24 27 26 25 25 23 25 26 27 31 31 33 33 34 33 33 33 35 36 36 37 37 36 36 37 37 38 39 39 39 40 39 39 39 39 39 39 40 40 40 40 40 40 40 41 45 45 44 44 44 44 44 44 45 46 46 47 48 48 49 51 51 52 51 51 53 53 52 52
31 32 29 26 25 21 26 30 30 27 24 21 21 24 25 24 26 28 27 30 30 26 24 24 28 31 32 34 30 31 31 31 31 33 35 36 36 37 36 36 36 36 37 38 38 40 39 39 40 39 39 39 38 39 39 39 39 39 40 40 40 44 45 44 44 43 43 44 44 45 44 45 46 47 48 47 48 48 50 51 51 51 52 52 53 52
33 31 25 28 23 21 26 28 26 22 15 18 29 32 32 31 29 26 26 28 32 31 30 31 32 32 31 32 31 31 32 32 33 34 36 36 36 36 37 37 37 37 36 37 38 39 39 40 40 40 39 39 39 39 39 41 39 39 41 43 44 44 44 44 43 43 44 44 44 44 44 44 45 46 48 48 48 48 47 48 48 49 50 53 53 52
32 29 27 27 26 25 27 24 22 12 17 27 30 33 35 35 33 32 32 32 32 32 32 32 32 33 33 33 33 34 34 34 35 36 37 39 38 38 38 38 38 38 37 37 37 38 39 40 40 39 39 39 39 40 40 40 42 43 41 42 44 44 44 43 43 43 43 43 44 44 44 44 44 45 48 48 48 47 47 47 47 46 47 49 52 51
28 28 27 28 23 24 23 17 15 17 25 29 32 34 37 36 35 32 31 32 33 34 34 33 33 34 35 36 37 37 36 36 37 38 38 40 41 40 38 37 37 39 38 38 38 39 39 39 39 39 39 41 41 41 39 39 40 39 38 42 43 43 43 43 43 43 42 43 43 43 43 43 44 44 46 47 47 46 46 46 45 46 47 49 50 52
34 31 28 26 27 23 19 17 25 26 27 28 29 34 33 31 32 29 24 28 32 34 35 34 35 36 36 37 38 38 38 36 35 35 37 40 40 40 38 38 39 40 39 39 40 40 40 40 39 39 41 40 40 39 39 39 39 38 39 41 43 43 43 43 43 43 43 45 44 45 44 44 43 45 47 47 46 45 45 45 45 45 48 47 48 50
35 30 30 25 23 22 23 22 21 19 17 22 27 33 36 36 35 34 31 30 34 35 36 35 35 36 36 37 37 37 35 34 33 33 36 37 39 40 40 40 40 40 40 40 39 39 39 39 39 40 40 39 39 39 39 38 39 39 39 40 41 42 42 42 43 43 44 43 44 44 43 43 44 46 46 46 45 45 45 46 46 45 47 47 47 48
33 33 31 29 23 25 24 22 19 19 21 23 30 34 37 38 37 34 31 28 32 34 37 38 37 36 37 37 38 36 34 31 32 34 36 38 39 40 40 40 40 40 40 40 39 39 38 38 38 41 40 38 38 38 38 38 37 38 39 42 40 41 41 42 42 42 43 43 43 43 43 43 44 45 45 45 45 46 45 45 46 47 46 46 47 49
32 27 26 26 25 23 19 22 21 19 20 28 31 33 36 38 35 32 24 21 30 33 37 38 38 37 38 38 38 35 33 30 32 35 37 38 39 40 40 40 40 39 40 40 39 39 39 41 42 38 37 37 37 37 37 37 36 40 39 41 39 40 41 42 43 43 43 43 43 43 43 44 46 46 46 44 44 44 44 47 45 44 44 45 46 48
27 27 25 28 24 24 24 21 20 25 29 31 34 36 39 38 33 26 23 29 32 33 37 40 39 39 38 38 38 35 36 36 37 38 39 40 40 39 41 41 41 40 40 39 39 42 39 40 39 38 37 37 37 37 38 37 37 40 42 39 37 38 40 41 42 42 42 43 42 42 42 42 43 43 43 43 43 43 46 45 42 43 43 43 45 46
22 25 24 23 23 24 25 23 28 26 29 34 34 39 39 33 26 23 31 35 36 35 38 41 41 41 40 40 38 38 38 39 41 41 41 41 40 39 40 40 40 40 40 41 41 40 39 39 39 38 37 38 38 38 38 37 37 38 40 38 36 37 38 38 38 40 42 42 42 43 43 42 43 44 44 45 46 44 42 40 41 43 43 42 43 44
24 25 23 23 24 22 19 22 20 19 23 39 38 35 35 28 31 33 35 37 38 38 39 40 42 42 41 40 41 40 40 41 40 40 40 41 40 40 39 40 40 40 40 39 39 40 40 38 39 38 37 38 38 38 38 36 37 38 39 37 37 38 38 38 40 41 42 42 42 43 44 44 43 44 44 43 42 39 37 37 40 41 42 41 42 43
28 21 19 20 26 19 19 20 22 29 29 38 37 30 34 35 35 36 37 35 38 40 39 41 41 42 41 40 39 39 40 40 41 41 40 40 40 41 40 40 40 40 40 39 39 39 41 38 39 38 38 38 39 38 38 36 36 38 39 37 38 38 39 39 40 41 41 42 42 42 42 44 43 41 40 42 41 42 38 38 40 41 41 41 43 43
27 25 26 19 25 23 23 27 30 31 33 37 39 37 37 37 38 38 38 37 37 38 41 39 41 41 42 42 41 40 39 40 40 40 39 40 40 40 41 41 41 40 40 40 39 40 40 38 38 38 38 38 39 39 38 37 36 39 38 37 38 37 38 39 40 41 41 41 40 40 39 39 37 39 38 38 38 39 40 40 40 39 40 42 42 42
28 31 31 28 28 30 32 31 33 34 35 36 38 40 39 38 39 40 39 38 40 39 42 41 41 42 40 41 39 39 40 41 40 41 41 41 41 42 42 42 41 41 41 40 39 39 40 39 39 38 38 38 39 39 39 38 37 38 38 38 39 37 38 39 40 40 40 39 38 37 39 36 36 36 36 36 37 40 38 38 40 40 39 41 42 41
29 33 30 28 30 26 24 30 32 34 35 34 37 38 40 41 40 42 40 41 41 40 41 42 42 41 40 41 41 41 41 41 41 42 42 42 42 42 42 42 42 41 41 40 40 40 40 39 39 38 39 38 38 39 39 38 38 37 38 38 38 37 38 39 39 40 39 38 38 38 37 34 34 35 36 34 32 33 37 37 37 39 41 40 41 40
22 33 29 28 27 27 27 29 31 34 34 35 34 35 36 38 40 42 43 42 42 41 41 42 42 42 41 42 42 42 42 42 41 42 42 41 42 42 42 43 43 42 41 41 41 40 40 39 39 38 39 39 39 39 39 38 38 38 38 38 38 37 37 39 39 38 38 37 37 38 37 35 39 38 33 34 33 32 33 34 36 37 38 39 39 39
26 32 25 30 28 30 28 28 29 29 31 32 33 35 36 37 39 40 42 43 43 43 43 42 42 44 42 43 42 41 42 42 42 42 42 42 42 42 42 42 43 43 42 41 40 40 40 39 39 39 39 39 40 39 39 38 38 38 38 38 38 37 37 38 38 38 36 35 36 38 39 37 39 36 33 32 33 32 32 33 35 36 36 35 35 37
29 27 29 26 24 24 24 26 31 23 25 29 32 33 34 36 38 38 39 38 40 42 42 42 42 42 43 43 41 40 41 41 41 40 41 41 42 42 42 43 43 43 43 42 41 40 40 41 40 40 39 39 40 39 38 38 38 39 38 39 38 38 37 38 38 37 35 34 35 36 38 36 35 35 34 32 32 31 33 33 36 34 34 34 36 32
27 27 28 25 25 23 27 29 33 30 29 31 31 34 36 36 38 37 37 37 36 38 40 41 40 38 38 39 41 41 41 41 40 40 40 41 42 43 43 43 43 43 43 42 41 40 40 40 41 40 40 40 40 39 39 38 38 38 39 39 38 38 37 38 38 37 36 36 36 36 38 37 33 34 33 32 31 31 31 31 30 33 36 35 35 33